Weather in Ak-Dovurak

Russia / Tyva Republic     51°11′27″N   90°36′03″E
temp.,
°C
wind,
m/s
gust,
m/s
humid.,
%
clouds,
%
prec.,
mm/h
press.,
hPa
HPBL,
m
5 march, fri
fri501:00−16nnw118233 0.0 103020
04:00−16nnw1191100 0.1 102920
07:00−18n1196100 0.1 102920
10:00−14se1089100 0.0 1027127
13:00−12e1184100 0.1 1023327
16:00−10se1187100 0.1 1022251
19:00−16n009784 0.3 102720
22:00−15n228218 0.0 103120
6 march, sat
sat601:00−16n117412 0.0 103420
04:00−18n117293 0.0 103320
07:00−18nnw116996 0.0 103420
10:00−13se117187 0.0 103235
13:00−10se117675 0.0 1027205
16:00−8ese118110 0.0 1024226
19:00−15nne119921 0.0 102521
22:00−16n119189 0.0 102620
7 march, sun
sun701:00−17n117944 0.0 102620
04:00−18nnw11720 0.0 102520
07:00−19nne00700 0.0 102620
10:00−14se117762 0.0 102532
13:00−10se117660 0.0 1023201
16:00−8se117770 0.0 1022208
19:00−14n119076 0.0 102521
22:00−15nne11850 0.0 102821
8 march, mon
mon801:00−15n017842 0.0 102821
04:00−16nnw0175100 0.0 102820
07:00−17nnw007392 0.0 102920
10:00−13se117826 0.0 102647
13:00−9se117713 0.0 1022230
16:00−7se10820 0.0 1020213
19:00−14nnw009510 0.0 102121
22:00−14n119167 0.0 102221
9 march, tue
tue901:00−13sw008882 0.0 102321
04:00−14n1185100 0.0 102421
07:00−15ne118251 0.0 102721
10:00−10ese11862 0.0 102749
13:00−6ese21821 0.0 1026214
16:00−5ese218484 0.0 1025218
19:00−10nne119243 0.0 102621
22:00−11n11880 0.0 102821